Volver al catálogo

STARLINK-4719

ActivoComunicacionesVLEO
NORAD 53774·PAYLOAD·🇺🇸 United States

Lanzado Sep 11, 2022 desde Cape Canaveral Space Force Station

Loading…

Próximos Pases (próximas 24 horas)

TLE

ActualizadoSource: CelesTrak SupGP

Época: Sep 14, 2026, 22:22 UTC

1 53774C 22111B   26257.93243056 -.00017310  00000+0 -55670-3 0  2573
2 53774  53.1585 144.4574 0001542  85.8661 160.4511 15.31707641    14

Sigue STARLINK-4719 en tiempo real con AllMySat

Download on the App Store